Ketchikan, AK

8:07 AM AKDT on April 22, 2018 (GMT -0800)
Ketchikan International

Weather History for PAKT - December, 2017

Change the Weather History Date:

Saturday, December 9, 2017

  Actual Average Record
Temperature  
Mean Temperature 48 °F -  
Max Temperature 50 °F 40 °F 57 °F (1960)
Min Temperature 45 °F 31 °F 6 °F (1977)
Degree Days  
Heating Degree Days 18    
Moisture  
Dew Point 44 °F    
Average Humidity 90    
Maximum Humidity 97    
Minimum Humidity 71    
Precipitation  
Precipitation 4.18 in - - ()
Sea Level Pressure  
Sea Level Pressure 30.04 in    
Wind  
Wind Speed 19 mph (SE)    
Max Wind Speed 29 mph    
Max Gust Speed 40 mph    
Visibility 5 miles    
Events Rain    
Averages and records for this station are not official NWS values.
T = Trace of Precipitation, MM = Missing Value Source: NWS Daily Summary

Daily Weather History Graph

Daily Weather History Graph

Search for Another Location

Airport or City:

Astronomy

Dec. 09, 2017 Rise Set
Actual Time 8:02 AM AKST 3:16 PM AKST
Civil Twilight 7:16 AM AKST 4:02 PM AKST
Nautical Twilight 6:28 AM AKST 4:49 PM AKST
Astronomical Twilight 5:44 AM AKST 5:34 PM AKST
Moon 11:11 PM AKST (12/9) 12:21 PM AKST (12/9)
Length of Visible Light 8h 45m
Length of Day
7h 14m
Waning Gibbous, 55% of the Moon is Illuminated
Dec 9
Waning Gibbous
Dec 9
Last Quarter
Dec 17
New
Dec 26
First Quarter
Jan 1
Full

Hourly Weather History & Observations

Time (AKST) Temp. Windchill Dew Point Humidity Pressure Visibility Wind Dir Wind Speed Gust Speed Precip Events Conditions
12:10 AM 46.0 °F 38.5 °F 42.1 °F 86% 30.05 in 2.5 mi SE 19.6 mph 32.2 mph 0.07 in Rain Rain
12:17 AM 46.0 °F 38.3 °F 42.1 °F 86% 30.06 in 3.0 mi SE 20.7 mph 31.1 mph 0.09 in Rain Rain
12:27 AM 46.0 °F 39.0 °F 43.0 °F 89% 30.06 in 2.5 mi SE 17.3 mph 26.5 mph 0.13 in Rain Heavy Rain
12:39 AM 45.0 °F 37.4 °F 43.0 °F 93% 30.06 in 3.0 mi SSE 18.4 mph 31.1 mph 0.17 in Rain Rain
12:53 AM 46.0 °F 38.0 °F 43.0 °F 89% 30.06 in 4.0 mi SE 21.9 mph 26.5 mph 0.19 in Rain Rain
1:53 AM 46.0 °F 38.8 °F 43.0 °F 89% 30.04 in 3.0 mi SSE 18.4 mph 26.5 mph 0.20 in Rain Heavy Rain
2:03 AM 46.9 °F - 43.0 °F 86% 30.03 in 3.0 mi SSE 17.3 mph 31.1 mph 0.06 in Rain Heavy Rain
2:53 AM 46.9 °F - 43.0 °F 86% 30.04 in 3.0 mi SSE 17.3 mph 26.5 mph 0.32 in Rain Rain
3:00 AM 46.9 °F - 43.0 °F 86% 30.03 in 3.0 mi SE 16.1 mph 24.2 mph 0.04 in Rain Heavy Rain
3:53 AM 46.9 °F - 43.0 °F 86% 30.01 in 4.0 mi SE 24.2 mph 32.2 mph 0.18 in Rain Rain
4:24 AM 46.0 °F 38.3 °F 43.0 °F 89% 30.00 in 2.0 mi SE 20.7 mph 27.6 mph 0.11 in Rain Rain
4:38 AM 46.0 °F 39.0 °F 43.0 °F 89% 30.00 in 3.0 mi SE 17.3 mph 26.5 mph 0.16 in Rain Rain
4:53 AM 46.9 °F - 43.0 °F 86% 30.00 in 7.0 mi SE 23.0 mph 29.9 mph 0.19 in Rain Light Rain
5:33 AM 46.9 °F - 44.1 °F 90% 29.98 in 2.0 mi SE 25.3 mph 34.5 mph 0.18 in Rain Heavy Rain
5:43 AM 46.9 °F - 43.0 °F 86% 29.98 in 4.0 mi SE 21.9 mph - 0.22 in Rain Heavy Rain
5:53 AM 46.9 °F - 44.1 °F 90% 29.98 in 4.0 mi SE 15.0 mph 25.3 mph 0.27 in Rain Rain
6:05 AM 46.9 °F - 44.1 °F 90% 29.97 in 10.0 mi SSE 12.7 mph - 0.00 in Rain Light Rain
6:53 AM 46.9 °F - 43.0 °F 86% 29.95 in 10.0 mi SSE 10.4 mph 19.6 mph 0.01 in Rain Light Rain
7:53 AM 50.0 °F - 41.0 °F 71% 29.95 in 8.0 mi ESE 27.6 mph 39.1 mph 0.03 in Rain Light Rain
8:53 AM 48.9 °F - 44.1 °F 83% 29.97 in 6.0 mi SE 20.7 mph 35.7 mph 0.10 in Rain Rain
9:53 AM 46.9 °F - 45.0 °F 93% 29.99 in 4.0 mi SSE 15.0 mph 23.0 mph 0.11 in Rain Rain
10:53 AM 46.9 °F - 45.0 °F 93% 30.00 in 3.0 mi SE 28.8 mph 40.3 mph 0.24 in Rain Rain
11:53 AM 46.9 °F - 45.0 °F 93% 29.97 in 3.0 mi SE 27.6 mph 38.0 mph 0.35 in Rain Heavy Rain
12:53 PM 48.0 °F - 44.1 °F 86% 29.96 in 3.0 mi SE 26.5 mph 35.7 mph 0.38 in Rain Rain
1:53 PM 48.0 °F - 45.0 °F 89% 29.96 in 4.0 mi SE 24.2 mph 33.4 mph 0.24 in Rain Rain
2:53 PM 46.9 °F - 45.0 °F 93% 29.96 in 3.0 mi ESE 25.3 mph 34.5 mph 0.40 in Rain Heavy Rain
3:53 PM 46.9 °F - 45.0 °F 93% 30.00 in 3.0 mi SSE 13.8 mph - 0.42 in Rain Heavy Rain
4:53 PM 46.9 °F - 45.0 °F 93% 30.03 in 4.0 mi SE 18.4 mph 26.5 mph 0.28 in Rain Light Rain
5:53 PM 46.9 °F - 45.0 °F 93% 30.03 in 10.0 mi SSE 10.4 mph - 0.10 in Rain Light Rain
6:53 PM 46.9 °F - 45.0 °F 93% 30.06 in 10.0 mi SE 15.0 mph - 0.03 in   Overcast
7:53 PM 46.0 °F 39.0 °F 45.0 °F 96% 30.10 in 3.0 mi SE 17.3 mph - 0.10 in Rain Rain
8:53 PM 46.9 °F - 45.0 °F 93% 30.16 in 9.0 mi SE 15.0 mph - 0.04 in Rain Light Rain
9:53 PM 46.9 °F - 46.0 °F 97% 30.20 in 9.0 mi SE 13.8 mph - 0.00 in Rain Light Rain
10:01 PM 46.9 °F - 46.0 °F 97% 30.19 in 8.0 mi SE 16.1 mph - 0.00 in Rain Light Rain
10:53 PM 46.9 °F - 46.0 °F 97% 30.21 in 9.0 mi ESE 13.8 mph - 0.00 in   Overcast
11:53 PM 46.9 °F - 45.0 °F 93% 30.25 in 10.0 mi SE 11.5 mph - 0.00 in   Overcast